sat.trackr.live / text

‹ back to catalog

STARLINK-11598 [DTC]

NORAD 63113 · 2025-039K

PAYLOAD ACTIVE UNKNOWN

§ Identity

Operator
Country
US
Launch date
2025-02-27
Launch site
AFETR
Launch vehicle
Mass (kg)
RCS (m²)

Purposes: comms

External: N2YO · Heavens-Above · Gunter

§ Orbital elements

Epoch: 2026-05-25T01:06:30.378816Z

Period
91.67 min
Inclination
43.0006°
Eccentricity
0.0003376
Mean motion
15.70835837 rev/d
Perigee alt
354.2 km
Apogee alt
358.8 km
Semi-major
6,734.6 km
B*
1.2309e-3
RAAN
136.6549°
Arg perigee
291.5249°
Mean anomaly
68.5258°
Rev number
7,162

§ Raw data

STARLINK-11598 [DTC]1 63113U 25039K   26145.04618494  .00160580  00000+0  12309-2 0  99932 63113  43.0006 136.6549 0003376 291.5249  68.5258 15.70835837 71621

JSON: /api/v1/satellites/63113 · /tle

For live sub-satellite position, see the globe view (requires WebGL).

§ Visibility from observer

Set your observer location to see the next 7 days of passes ≥ 10°. The values pass through the URL so the page stays shareable.

No JS? Fill the form by hand. The geolocation button needs JavaScript.